H1 CPF  2  SGF 2024  6  4  2  156 01 etalon1   
H2  8900103  525    19751 2024  6  3  0  0  0 2024  6  7 23 45  0   900 1 1  0 0 0 1
H9
10 0 60466  82800.00000  0 -21174137.269 -10749963.191  -9393845.325
10 0 60466  83700.00000  0 -22047009.910 -11208775.691  -6384059.885
10 0 60466  84600.00000  0 -22630560.677 -11402957.225  -3250753.785
10 0 60466  85500.00000  0 -22883967.436 -11370427.005    -54585.226
10 0 60467      0.00000  0 -22776864.843 -11157179.357   3142645.805
10 0 60467    900.00000  0 -22290705.184 -10815119.042   6279176.262
10 0 60467   1800.00000  0 -21419644.907 -10399664.652   9294453.673
10 0 60467   2700.00000  0 -20170921.357  -9967219.552  12130283.671
10 0 60467   3600.00000  0 -18564704.782  -9572614.977  14731931.147
10 0 60467   4500.00000  0 -16633431.111  -9266632.231  17049155.723
10 0 60467   5400.00000  0 -14420642.659  -9093705.724  19037163.511
10 0 60467   6300.00000  0 -11979383.464  -9089901.409  20657458.640
10 0 60467   7200.00000  0  -9370213.102  -9281255.355  21878579.560
10 0 60467   8100.00000  0  -6658918.892  -9682541.176  22676706.971
10 0 60467   9000.00000  0  -3914018.495 -10296518.425  23036132.100
10 0 60467   9900.00000  0  -1204153.064 -11113695.398  22949576.072
10 0 60467  10800.00000  0   1404523.468 -12112618.116  22418353.311
10 0 60467  11700.00000  0   3850852.519 -13260676.409  21452374.247
10 0 60467  12600.00000  0   6080974.153 -14515396.760  20069985.107
10 0 60467  13500.00000  0   8050330.131 -15826170.852  18297645.348
10 0 60467  14400.00000  0   9725282.615 -17136350.644  16169446.152
10 0 60467  15300.00000  0  11084280.626 -18385624.147  13726476.579
10 0 60467  16200.00000  0  12118523.649 -19512573.519  11016047.187
10 0 60467  17100.00000  0  12832092.229 -20457308.603   8090784.210
10 0 60467  18000.00000  0  13241539.199 -21164063.619   5007610.672
10 0 60467  18900.00000  0  13374956.976 -21583645.874   1826633.854
10 0 60467  19800.00000  0  13270558.925 -21675630.842  -1390038.782
10 0 60467  20700.00000  0  12974835.892 -21410206.958  -4579530.777
10 0 60467  21600.00000  0  12540366.364 -20769589.143  -7679448.906
10 0 60467  22500.00000  0  12023374.306 -19748938.490 -10629129.528
10 0 60467  23400.00000  0  11481141.817 -18356745.964 -13370851.843
10 0 60467  24300.00000  0  10969388.657 -16614662.506 -15850991.596
10 0 60467  25200.00000  0  10539732.337 -14556782.111 -18021090.198
10 0 60467  26100.00000  0  10237340.235 -12228407.587 -19838816.324
10 0 60467  27000.00000  0  10098874.814  -9684352.194 -21268799.883
10 0 60467  27900.00000  0  10150820.182  -6986850.196 -22283321.509
10 0 60467  28800.00000  0  10408262.029  -4203165.266 -22862844.246
10 0 60467  29700.00000  0  10874171.626  -1402998.874 -22996377.964
10 0 60467  30600.00000  0  11539222.955   1344191.349 -22681670.875
10 0 60467  31500.00000  0  12382149.147   3971851.047 -21925226.295
10 0 60467  32400.00000  0  13370620.646   6418855.271 -20742146.505
10 0 60467  33300.00000  0  14462606.041   8631796.678 -19155808.987
10 0 60467  34200.00000  0  15608155.896  10566942.917 -17197383.504
10 0 60467  35100.00000  0  16751532.664  12191784.105 -14905201.387
10 0 60467  36000.00000  0  17833596.222  13486108.807 -12323990.915
10 0 60467  36900.00000  0  18794343.657  14442568.112  -9503994.924
10 0 60467  37800.00000  0  19575496.804  15066707.777  -6499988.600
10 0 60467  38700.00000  0  20123030.059  15376470.228  -3370216.854
10 0 60467  39600.00000  0  20389532.855  15401191.355   -175271.797
10 0 60467  40500.00000  0  20336309.603  15180136.201   3023068.470
10 0 60467  41400.00000  0  19935131.213  14760636.003   6163018.295
10 0 60467  42300.00000  0  19169565.636  14195906.535   9183958.648
10 0 60467  43200.00000  0  18035833.439  13542638.595  12027585.986
10 0 60467  44100.00000  0  16543153.736  12858460.401  14639015.510
10 0 60467  45000.00000  0  14713565.313  12199377.945  16967819.471
10 0 60467  45900.00000  0  12581230.075  11617298.348  18968982.422
10 0 60467  46800.00000  0  10191246.503  11157738.004  20603756.840
10 0 60467  47700.00000  0   7598019.550  10857810.924  21840404.045
10 0 60467  48600.00000  0   4863252.191  10744580.082  22654807.205
10 0 60467  49500.00000  0   2053638.969  10833840.529  23030945.060
10 0 60467  50400.00000  0   -761646.638  11129386.342  22961217.048
10 0 60467  51300.00000  0  -3513569.617  11622793.218  22446612.670
10 0 60467  52200.00000  0  -6135849.422  12293728.218  21496720.301
10 0 60467  53100.00000  0  -8567468.435  13110776.529  20129573.134
10 0 60467  54000.00000  0 -10754969.455  14032753.458  18371332.692
10 0 60467  54900.00000  0 -12654446.444  15010449.923  16255813.241
10 0 60467  55800.00000  0 -14233145.455  15988740.283  13823853.559
10 0 60467  56700.00000  0 -15470607.182  16908965.683  11122545.753
10 0 60467  57600.00000  0 -16359301.042  17711493.857   8204334.064
10 0 60467  58500.00000  0 -16904722.978  18338346.419   5125999.921
10 0 60467  59400.00000  0 -17124950.760  18735781.634   1947552.550
10 0 60467  60300.00000  0 -17049673.763  18856721.657  -1268952.883
10 0 60467  61200.00000  0 -16718738.589  18662917.677  -4460645.187
10 0 60467  62100.00000  0 -16180271.958  18126758.360  -7565089.150
10 0 60467  63000.00000  0 -15488461.093  17232642.116 -10521532.658
10 0 60467  63900.00000  0 -14701088.674  15977851.201 -13272121.762
10 0 60467  64800.00000  0 -13876928.906  14372888.845 -15763057.131
10 0 60467  65700.00000  0 -13073117.542  12441263.951 -17945666.828
10 0 60467  66600.00000  0 -12342610.974  10218731.118 -19777372.368
10 0 60467  67500.00000  0 -11731843.793   7752018.748 -21222527.836
10 0 60467  68400.00000  0 -11278685.471   5097099.965 -22253115.070
10 0 60467  69300.00000  0 -11010783.955   2317079.775 -22849281.471
10 0 60467  70200.00000  0 -10944365.552   -520210.963 -22999710.807
10 0 60467  71100.00000  0 -11083540.766  -3344812.444 -22701821.241
10 0 60467  72000.00000  0 -11420143.708  -6087314.655 -21961788.606
10 0 60467  72900.00000  0 -11934109.187  -8681505.537 -20794396.647
10 0 60467  73800.00000  0 -12594369.196 -11066878.349 -19222719.383
10 0 60467  74700.00000  0 -13360228.118 -13190895.604 -17277643.963
10 0 60467  75600.00000  0 -14183156.295 -15010917.166 -14997245.273
10 0 60467  76500.00000  0 -15008925.036 -16495714.690 -12426026.093
10 0 60467  77400.00000  0 -15779991.299 -17626513.267  -9614038.851
10 0 60467  78300.00000  0 -16438031.385 -18397520.174  -6615906.871
10 0 60467  79200.00000  0 -16926517.787 -18815921.837  -3489764.439
10 0 60467  80100.00000  0 -17193230.752 -18901353.198   -296136.193
10 0 60467  81000.00000  0 -17192600.694 -18684864.111   2903223.009
10 0 60467  81900.00000  0 -16887785.152 -18207427.570   6046506.257
10 0 60467  82800.00000  0 -16252393.734 -17518054.303   9073029.306
10 0 60467  83700.00000  0 -15271790.622 -16671592.558  11924380.768
10 0 60467  84600.00000  0 -13943921.457 -15726304.311  14545527.453
10 0 60467  85500.00000  0 -12279629.371 -14741319.101  16885855.452
10 0 60468      0.00000  0 -10302447.022 -13774069.951  18900128.832
10 0 60468    900.00000  0  -8047872.264 -12877816.573  20549349.302
10 0 60468   1800.00000  0  -5562154.718 -12099358.443  21801501.712
10 0 60468   2700.00000  0  -2900641.373 -11477031.487  22632172.099
10 0 60468   3600.00000  0   -125746.844 -11039071.284  23025026.869
10 0 60468   4500.00000  0   2695371.567 -10802411.533  22972143.675
10 0 60468   5400.00000  0   5493340.626 -10771968.428  22474186.785
10 0 60468   6300.00000  0   8199197.759 -10940442.621  21540422.021
10 0 60468   7200.00000  0  10747011.392 -11288649.210  20188568.876
10 0 60468   8100.00000  0  13076387.463 -11786364.402  18444490.122
10 0 60468   9000.00000  0  15134758.211 -12393656.487  16341722.139
10 0 60468   9900.00000  0  16879358.072 -13062647.249  13920852.280
10 0 60468  10800.00000  0  18278802.747 -13739631.794  11228752.860
10 0 60468  11700.00000  0  19314203.281 -14367469.200   8317684.580
10 0 60468  12600.00000  0  19979766.934 -14888142.431   5244285.531
10 0 60468  13500.00000  0  20282857.216 -15245378.796   2068464.964
10 0 60468  14400.00000  0  20243508.428 -15387218.759  -1147776.262
10 0 60468  15300.00000  0  19893414.792 -15268420.580  -4341574.265
10 0 60468  16200.00000  0  19274436.269 -14852596.151  -7450453.799
10 0 60468  17100.00000  0  18436684.474 -14113984.576 -10413576.100
10 0 60468  18000.00000  0  17436272.019 -13038784.027 -13172955.675
10 0 60468  18900.00000  0  16332822.358 -11625983.233 -15674619.496
10 0 60468  19800.00000  0  15186847.891  -9887655.771 -17869683.414
10 0 60468  20700.00000  0  14057110.769  -7848702.592 -19715322.679
10 0 60468  21600.00000  0  12998080.096  -5546053.904 -21175616.202
10 0 60468  22500.00000  0  12057594.803  -3027364.790 -22222247.448
10 0 60468  23400.00000  0  11274832.515   -349259.746 -22835048.364
10 0 60468  24300.00000  0  10678669.887   2424798.288 -23002376.591
10 0 60468  25200.00000  0  10286502.834   5226923.505 -22721320.021
10 0 60468  26100.00000  0  10103574.726   7987405.688 -21997726.609
10 0 60468  27000.00000  0  10122838.166  10637381.988 -20846061.014
10 0 60468  27900.00000  0  10325353.587  13111470.313 -19289093.107
10 0 60468  28800.00000  0  10681204.448  15350255.756 -17357426.600
10 0 60468  29700.00000  0  11150887.555  17302527.769 -15088878.968
10 0 60468  30600.00000  0  11687117.908  18927176.903 -12527726.354
10 0 60468  31500.00000  0  12236969.397  20194675.448  -9723829.452
10 0 60468  32400.00000  0  12744260.210  21088083.285  -6731658.199
10 0 60468  33300.00000  0  13152082.696  21603540.072  -3609234.551
10 0 60468  34200.00000  0  13405370.434  21750227.077   -417013.798
10 0 60468  35100.00000  0  13453395.845  21549802.870   2783274.413
10 0 60468  36000.00000  0  13252095.209  21035338.371   5929803.912
10 0 60468  36900.00000  0  12766123.770  20249797.982   8961827.205
99